This is the latest recevied weather packets stored in our database for station/object GBTWP-2. If no packets are shown the sender has not sent any weather packets the latest 10 day(s).
| Time | Temp. | Humidity | Pressure | Rain* | Wind** | Luminosity | Snow |
|---|---|---|---|---|---|---|---|
| 1788222720 | 22.78° C | 81% | 1016.4 hPa | 0 mm | - | 0 W/m² | - |
| 1788222421 | 22.78° C | 81% | 1016.5 hPa | 0 mm | - | 0 W/m² | - |
| 1788222125 | 22.78° C | 81% | 1016.3 hPa | 0 mm | - | 0 W/m² | - |
| 1788221820 | 22.78° C | 81% | 1016.2 hPa | 0 mm | - | 1 W/m² | - |
| 1788221520 | 22.78° C | 81% | 1016.1 hPa | 0 mm | - | 2 W/m² | - |
| 1788221220 | 22.78° C | 80% | 1016.2 hPa | 0 mm | - | 3 W/m² | - |
| 1788220920 | 22.78° C | 81% | 1016.2 hPa | 0 mm | - | 4 W/m² | - |
| 1788220620 | 22.78° C | 81% | 1016.2 hPa | 0 mm | - | 5 W/m² | - |
| 1788220320 | 22.78° C | 82% | 1016.2 hPa | 0 mm | - | 7 W/m² | - |
| 1788220020 | 22.78° C | 82% | 1016.3 hPa | 0 mm | - | 9 W/m² | - |
| 1788219720 | 22.78° C | 83% | 1016.1 hPa | 0 mm | - | 9 W/m² | - |
| 1788219420 | 22.78° C | 83% | 1016.1 hPa | 0 mm | - | 12 W/m² | - |
| 1788219120 | 22.78° C | 83% | 1016.4 hPa | 0 mm | - | 12 W/m² | - |
| 1788218820 | 23.33° C | 82% | 1016.2 hPa | 0 mm | - | 12 W/m² | - |
| 1788218520 | 23.33° C | 82% | 1016.2 hPa | 0 mm | - | 16 W/m² | - |
| 1788218221 | 23.33° C | 82% | 1016.3 hPa | 0 mm | - | 17 W/m² | - |
| 1788217920 | 23.33° C | 82% | 1016.5 hPa | 0 mm | - | 27 W/m² | - |
| 1788217620 | 23.33° C | 81% | 1016.6 hPa | 0 mm | - | 44 W/m² | - |
| 1788217320 | 23.33° C | 81% | 1016.6 hPa | 0 mm | - | 31 W/m² | - |
| 1788217021 | 23.33° C | 81% | 1016.6 hPa | 0 mm | - | 32 W/m² | - |
| 1788216720 | 23.89° C | 81% | 1016.6 hPa | 0 mm | - | 38 W/m² | - |
| 1788216420 | 23.89° C | 81% | 1016.7 hPa | 0 mm | - | 47 W/m² | - |
| 1788216120 | 23.89° C | 80% | 1016.8 hPa | 0 mm | - | 67 W/m² | - |
| 1788215820 | 23.89° C | 79% | 1016.7 hPa | 0 mm | - | 77 W/m² | - |
| 1788215520 | 23.89° C | 81% | 1016.6 hPa | 0 mm | - | 68 W/m² | - |
* Rain latest hour (hover to see other rain measurements)
** Current wind speed in m/s (hover to see current wind gust speed)